SCP
0 0 0 0 0 0 0 0 0 0 0 0 0 0 0 0 0 0 0 0 0 0 0 0 0 0 0 0 0 0 0 0 0 0 0 0 0 0 0 0 0 0 0 0
0 0 0 0 0 0 0 0 0 0 0 0 0 0 0 0 0 0 0 0 0 0 0 0 0 0 0 -0 0 0 0 0 0 0 0 0 0 0 0 0 0 0 0 0
0 0 0 0 0 0 0 0 0 0 0 0 0 0 0 0 0 0 0 0 0 0 0 0 0 0 0 0 0 0 0 0 0 0 0 0 0 0 0 0 0 0 0 0
0 0 0 0 0 0 0 0 0 0 0 0 0 0 0 0 0 0 0 0 0 0 0 0 0 0 0 0 0 0 0 0 0 0 0 0 0 0 0 0 0 0 0 0
0 0 0 0 0 0 0 0 0 0 0 0 0 0 0 0 0 -0 -0 -0 -0 0 0 0 0 0 0 0 0 0 0 0 0 0 0 0 0 0 0 0 0 0 0 0
0 0 0 0 0 0 0 0 0 0 0 0 0 0 0 -0 -0 -0 -0 -0 -0 -0 0 0 0 0 0 0 0 0 0 0 0 0 0 0 0 0 0 0 0 0 0 0
0 0 0 0 0 0 0 0 0 0 0 0 0 0 -0 -0 -0 -0 -0 0 0 0 0 0 0 0 0 0 0 0 0 0 0 0 0 0 0 0 0 0 0 0 0 0
0 0 0 0 0 0 0 0 0 0 0 0 -0 -0 0 -0 -0 0 0 0 0 0 0 0 0 0 0 0 0 0 0 0 0 0 0 0 0 0 0 0 0 0 0 0
0 0 0 0 0 0 0 0 0 0 -0 -0 0 0 0 -0 0 0 0 0 0 0 0 0 0 0 0 0 0 0 0 0 0 0 0 0 0 0 0 0 0 0 0 0
0 0 0 0 0 0 -0 0 -0 0 -0 -0 0 0 -0 0 -0 0 0 0 0 0 0 -0 -0 0 0 0 0 0 0 0 0 0 0 0 0 0 0 0 0 0 0 0
0 0 0 0 0 -0 0 -0 0 0 0 0 0 -0 -0 -0 -0 0 0 0 0 0 -0 -0 -0 -0 0 0 0 0 0 0 0 0 0 0 0 0 0 0 0 0 0 0
0 0 0 0 0 0 -0 0 0 0 0 0 0 0 -0 -0 -0 0 0 0 0 -0 -0 -0 -0 0 0 0 0 0 0 0 0 0 0 0 0 0 0 0 0 0 0 0
0 0 0 0 0 0 0 0 0 0 0 0 0 0 0 0 0 0 0 0 0 -0 -0 -0 -0 0 0 0 0 0 0 0 0 0 0 0 0 0 0 0 0 0 0 0
0 0 0 -0 0 0 0 -0 0 0 0 -0 0 0 -0 0 0 0 0 0 -0 -0 -0 -0 -0 0 0 0 0 0 0 0 0 0 0 0 0 0 0 0 0 0 0 0
0 0 0 -0 0 -0 -0 -0 -0 -0 -0 -0 -0 -0 -0 -0 0 0 0 0 0 -0 -0 -0 0 0 0 0 0 0 0 0 0 0 0 0 0 0 0 0 0 0 0 0
0 0 0 0 0 -0 -0 -0 -0 -0 0 0 -0 0 -0 -0 -0 0 0 0 0 0 0 0 0 0 0 0 0 0 0 0 0 0 0 0 0 0 0 0 0 0 0 0
0 0 0 0 -0 0 -0 0 -0 0 0 0 0 0 0 -0 -0 0 0 0 0 0 0 0 0 0 0 0 0 0 0 0 0 0 0 0 0 0 0 0 0 0 0 0
0 0 0 0 -0 0 0 0 0 0 0 0 0 0 0 -0 0 0 0 0 0 0 0 0 0 0 0 0 0 0 0 0 0 0 0 0 0 0 0 0 0 0 0 0
0 0 0 0 0 0 0 0 0 0 0 0 0 0 0 0 0 0 -0 0 0 0 0 0 0 0 0 0 0 0 0 0 0 0 0 0 0 0 0 0 0 0 0 0
0 0 0 0 0 0 0 0 0 0 0 0 0 0 0 0 0 0 0 0 0 0 0 0 0 0 0 0 0 0 0 0 0 0 0 0 0 0 0 0 0 0 0 0
0 0 0 0 0 0 0 0 0 0 0 0 0 0 0 0 0 0 0 0 0 0 0 0 0 0 0 0 0 0 0 0 0 0 0 0 0 0 0 0 0 0 0 0
0 0 0 0 0 0 0 0 0 0 0 0 0 0 0 0 0 0 0 0 0 0 0 0 0 0 0 0 0 0 0 0 0 0 0 0 0 0 0 0 0 0 0 0
0 0 0 0 0 0 0 0 0 0 0 0 0 0 0 0 0 0 0 0 0 0 0 0 0 0 0 0 0 0 0 0 0 0 0 0 0 0 0 0 0 0 0 0
0 0 0 0 0 0 0 0 0 0 0 0 0 0 0 0 0 0 0 0 0 0 0 0 0 0 0 0 0 0 0 0 0 0 0 0 0 0 0 0 0 0 0 0
0 0 0 0 0 0 0 0 0 0 0 0 0 0 0 0 0 0 0 0 0 0 0 0 0 0 0 0 0 0 0 0 0 0 0 0 0 0 0 0 0 0 0 0
0 0 0 0 0 0 0 0 0 0 0 0 0 0 0 0 -0 -0 -0 0 0 0 0 0 0 0 0 0 0 0 0 0 0 0 0 0 0 0 0 0 0 0 0 0
Wind_Speed_500mb
6 6 15 16 13 11 9 11 14 12 15 12 6 11 21 32 38 37 28 7 9 15 27 26 21 16 14 12 19 26 25 25 26 21 22 25 28 31 36 38 39 41 39 36
10 16 14 10 6 9 10 13 9 8 12 14 8 14 18 33 36 37 30 19 14 17 20 22 18 13 10 16 24 25 24 24 22 22 24 28 34 42 45 45 46 43 39 37
18 15 9 7 11 17 7 10 18 21 18 3 7 11 24 21 37 38 36 25 18 17 18 15 14 14 13 16 18 19 17 19 20 29 30 35 45 45 47 51 49 43 41 41
15 16 8 8 7 19 18 13 24 21 13 5 8 3 26 19 31 36 37 31 25 21 16 12 9 13 11 9 6 10 15 17 23 41 53 41 48 54 51 52 49 48 48 48
8 14 24 15 15 15 13 30 20 18 15 9 8 5 17 21 30 33 31 28 23 19 17 15 11 4 4 5 3 8 15 24 39 34 39 44 49 51 53 53 55 55 54 52
20 6 14 17 22 9 30 24 11 11 9 8 5 4 17 14 24 25 26 22 20 20 18 16 14 12 8 7 11 17 24 31 35 38 41 44 49 54 57 59 61 60 57 55
6 26 6 33 20 3 26 23 6 7 8 1 6 7 14 18 19 20 20 20 20 19 17 15 13 11 12 16 21 26 31 37 38 41 44 47 50 53 57 57 58 60 60 58
14 3 25 24 20 19 17 17 7 6 3 6 7 7 8 15 15 16 17 18 17 17 15 13 15 17 20 25 28 32 36 40 42 44 47 48 48 49 52 53 57 60 58 56
13 6 9 12 15 29 13 11 8 7 2 2 8 4 9 4 16 17 18 16 15 13 14 16 19 22 26 30 33 35 38 41 44 46 47 48 48 50 53 55 55 53 52 50
6 4 10 10 9 20 19 13 2 7 6 2 9 7 7 16 16 12 13 11 10 11 14 18 22 26 31 33 35 37 40 43 45 47 47 49 50 50 53 53 53 53 50 48
7 4 8 2 17 20 16 11 11 5 5 6 3 7 13 20 16 14 12 9 11 14 18 23 27 31 33 35 38 40 42 45 47 48 49 50 50 52 51 57 64 59 55 46
10 4 9 11 9 10 21 16 5 7 6 3 6 7 17 16 23 18 13 10 11 16 21 26 30 33 35 38 40 42 43 46 48 50 52 51 51 55 65 62 51 45 38 33
8 4 4 11 9 14 11 15 8 3 2 6 9 6 12 20 23 19 15 13 15 20 26 29 33 35 36 38 41 44 47 50 53 55 55 55 55 59 63 46 43 39 36 32
5 6 9 15 12 8 9 21 15 3 3 6 9 14 28 22 20 20 17 17 21 25 29 32 35 36 37 40 43 48 51 54 57 57 57 57 59 69 47 42 39 37 36 35
6 7 8 10 11 13 14 17 17 17 8 11 13 23 22 20 20 18 16 20 25 31 32 34 35 37 39 42 47 51 54 57 58 59 58 57 60 50 42 40 38 36 35 32
8 6 3 6 13 32 23 31 31 27 24 19 16 21 24 18 17 17 20 25 30 32 32 34 34 37 41 45 50 54 56 60 60 58 55 61 56 43 41 39 39 37 35 32
7 3 3 7 5 9 12 15 23 24 26 17 18 12 19 17 19 22 26 28 29 29 31 32 35 38 41 46 51 55 58 60 59 58 61 59 46 43 41 40 39 39 39 40
7 6 4 2 5 4 9 14 8 23 24 22 16 20 20 20 18 19 26 26 27 28 29 31 34 38 41 46 54 54 58 61 58 58 62 56 46 44 42 41 43 42 43 44
16 4 6 4 5 10 6 12 10 10 18 28 24 28 28 25 7 26 28 23 23 24 25 28 32 36 40 47 57 56 61 61 59 64 62 51 46 44 40 41 42 42 50 46
8 7 2 2 4 6 7 18 21 13 6 36 33 30 32 34 8 20 27 21 23 23 25 28 34 35 42 48 56 57 62 62 63 64 58 46 44 40 39 40 42 45 50 48
10 8 12 9 8 8 18 32 20 6 10 36 31 27 26 20 19 22 16 17 20 22 24 29 32 37 43 49 53 57 61 63 56 66 52 44 42 41 41 40 41 44 53 47
13 9 8 6 4 9 31 11 5 7 24 27 28 25 24 20 14 12 14 18 21 22 25 30 33 37 42 50 56 58 65 61 55 63 51 46 46 44 42 42 41 48 56 49
7 9 7 9 7 16 27 17 11 12 23 26 29 25 20 17 13 11 14 18 21 23 25 27 31 34 42 50 56 63 69 66 58 59 58 45 49 49 46 47 48 52 58 52
7 15 5 6 9 24 12 8 6 24 24 28 25 23 16 14 11 10 14 16 19 22 24 27 30 34 41 48 55 63 68 70 61 58 65 50 48 56 53 54 53 57 61 57
9 17 11 4 5 16 5 7 23 28 29 26 23 18 14 9 7 7 11 14 17 20 22 25 29 32 38 43 53 61 66 71 72 60 60 59 48 53 56 60 60 57 57 61
13 5 4 4 16 18 26 22 32 37 31 26 23 17 10 4 3 5 9 12 14 19 23 23 27 33 39 44 50 57 63 68 73 72 56 62 50 52 53 56 54 53 51 54
Wind_Direction_500mb
64 93 43 14 7 13 340 307 312 354 39 326 73 63 41 28 25 23 25 75 133 154 161 166 165 164 163 210 253 231 226 233 243 253 264 277 284 286 287 287 283 279 279 273
140 67 18 4 358 306 306 297 332 283 29 293 170 67 63 42 39 33 32 60 95 131 153 158 159 153 90 263 243 234 232 244 255 264 274 281 287 289 285 284 285 282 275 269
63 24 349 298 6 330 310 322 332 311 323 96 225 152 41 64 47 47 46 54 73 113 131 145 150 152 248 262 245 238 244 251 267 282 289 294 293 292 292 289 287 284 278 274
63 21 12 352 9 344 296 354 315 294 279 257 348 99 63 42 50 45 44 47 58 76 92 105 118 201 268 281 255 235 255 275 290 296 295 291 290 291 290 289 287 281 276 274
72 18 14 9 355 331 326 319 298 287 250 209 55 259 67 48 36 35 39 42 47 60 82 93 86 73 50 32 324 295 297 297 295 295 297 296 294 292 292 289 286 283 280 277
60 69 34 351 322 310 318 301 280 228 206 208 28 320 60 26 13 21 37 43 53 69 80 78 75 63 37 0 337 320 311 306 305 303 301 299 297 297 294 292 289 287 283 277
130 51 44 8 351 199 346 326 253 220 190 155 34 58 54 32 23 21 28 53 71 78 76 71 53 26 1 345 334 325 318 314 312 309 306 304 299 297 296 295 293 291 287 280
4 188 12 3 19 325 351 341 1 265 303 74 118 94 62 41 40 42 59 75 79 74 64 45 18 356 345 338 328 326 323 318 316 314 310 308 304 302 299 296 291 288 285 280
357 88 11 26 352 4 348 27 313 277 293 244 103 73 283 345 70 61 71 79 70 55 30 6 353 344 338 332 331 327 322 321 320 316 314 314 312 308 305 301 297 294 289 285
29 337 19 7 321 36 26 358 310 353 5 97 81 69 51 16 62 78 86 76 54 23 359 348 344 339 338 333 330 327 325 322 321 321 320 319 317 314 310 307 302 296 289 278
354 317 35 217 25 7 14 23 357 97 338 323 74 82 341 354 56 74 79 56 23 356 348 345 342 341 339 335 334 331 329 329 327 326 324 321 320 321 319 311 305 300 303 301
24 5 58 50 63 8 50 15 31 313 64 2 309 68 355 26 60 65 67 41 1 348 347 345 344 343 341 340 338 337 334 333 331 329 328 327 326 325 324 323 332 331 324 321
6 60 198 162 170 56 27 338 295 161 264 15 324 55 353 66 67 58 49 23 3 356 353 350 349 348 347 344 342 341 339 336 335 334 332 330 330 331 328 329 329 331 330 326
275 56 29 70 67 334 336 352 3 226 353 64 41 53 46 49 57 50 35 19 11 0 356 353 352 351 350 349 345 342 341 340 338 339 336 336 336 328 336 337 341 341 339 335
6 88 90 75 91 73 30 35 30 61 60 51 79 60 33 34 36 33 20 14 6 4 360 358 356 354 352 350 346 345 343 343 343 342 344 341 332 343 351 357 355 353 352 345
15 111 148 109 120 84 57 46 52 54 46 72 75 63 5 33 37 23 18 6 2 4 0 1 358 357 355 352 347 346 346 349 347 347 349 343 351 2 7 8 2 6 9 11
36 34 214 145 204 233 52 0 47 64 46 37 45 345 356 21 12 7 6 5 6 5 3 1 2 358 356 354 348 349 349 349 355 354 354 355 8 13 16 15 21 30 33 25
1 134 135 44 253 138 113 19 336 71 57 31 20 10 357 346 347 22 13 11 12 8 6 6 1 358 358 355 354 353 353 356 359 359 359 7 18 19 26 33 37 41 39 34
14 300 131 188 54 113 70 19 341 348 46 31 8 358 348 337 274 54 28 19 15 13 9 5 0 359 358 360 360 356 359 1 3 4 5 17 25 27 37 43 45 45 42 46
16 8 328 202 131 87 20 322 309 272 95 17 3 355 350 339 67 49 358 4 11 10 10 4 5 2 4 3 4 0 3 3 8 4 19 29 35 40 46 49 53 52 58 56
20 20 35 26 89 100 347 333 307 250 5 341 351 350 348 1 353 332 14 8 10 9 8 10 8 7 7 7 7 5 7 9 8 6 28 42 47 52 53 55 61 61 67 66
17 344 35 352 80 89 1 347 49 336 315 331 343 344 340 344 357 6 9 9 12 8 10 12 11 9 11 11 12 10 14 11 12 8 36 53 58 63 62 59 62 67 69 67
45 13 351 7 46 346 325 279 284 312 319 331 331 335 334 341 355 2 2 6 11 8 11 13 12 11 13 16 18 17 18 19 15 17 39 56 65 63 63 65 60 70 66 70
63 14 353 308 8 331 305 290 240 336 326 325 325 324 329 335 346 3 4 6 9 9 13 15 16 16 16 19 21 23 24 26 22 25 34 51 66 67 63 65 66 62 72 76
345 328 331 280 346 334 264 271 315 324 325 323 321 318 318 333 359 6 14 9 9 10 13 19 18 19 19 21 25 26 27 30 30 28 29 48 60 65 67 60 58 63 64 72
344 327 336 295 323 302 280 307 318 317 321 319 314 316 310 317 15 24 19 19 16 12 18 22 20 25 26 27 28 30 29 32 34 33 32 41 57 63 67 72 71 67 73 78
Wind_Speed_850mb
6 6 15 16 13 11 9 11 14 12 15 12 6 11 21 32 38 37 28 7 9 15 27 26 21 16 14 12 19 26 25 25 26 21 22 25 28 31 36 38 39 41 39 36
10 16 14 10 6 9 10 13 9 8 12 14 8 14 18 33 36 37 30 19 14 17 20 22 18 13 10 16 24 25 24 24 22 22 24 28 34 42 45 45 46 43 39 37
18 15 9 7 11 17 7 10 18 21 18 3 7 11 24 21 37 38 36 25 18 17 18 15 14 14 13 16 18 19 17 19 20 29 30 35 45 45 47 51 49 43 41 41
15 16 8 8 7 19 18 13 24 21 13 5 8 3 26 19 31 36 37 31 25 21 16 12 9 13 11 9 6 10 15 17 23 41 53 41 48 54 51 52 49 48 48 48
8 14 24 15 15 15 13 30 20 18 15 9 8 5 17 21 30 33 31 28 23 19 17 15 11 4 4 5 3 8 15 24 39 34 39 44 49 51 53 53 55 55 54 52
20 6 14 17 22 9 30 24 11 11 9 8 5 4 17 14 24 25 26 22 20 20 18 16 14 12 8 7 11 17 24 31 35 38 41 44 49 54 57 59 61 60 57 55
6 26 6 33 20 3 26 23 6 7 8 1 6 7 14 18 19 20 20 20 20 19 17 15 13 11 12 16 21 26 31 37 38 41 44 47 50 53 57 57 58 60 60 58
14 3 25 24 20 19 17 17 7 6 3 6 7 7 8 15 15 16 17 18 17 17 15 13 15 17 20 25 28 32 36 40 42 44 47 48 48 49 52 53 57 60 58 56
13 6 9 12 15 29 13 11 8 7 2 2 8 4 9 4 16 17 18 16 15 13 14 16 19 22 26 30 33 35 38 41 44 46 47 48 48 50 53 55 55 53 52 50
6 4 10 10 9 20 19 13 2 7 6 2 9 7 7 16 16 12 13 11 10 11 14 18 22 26 31 33 35 37 40 43 45 47 47 49 50 50 53 53 53 53 50 48
7 4 8 2 17 20 16 11 11 5 5 6 3 7 13 20 16 14 12 9 11 14 18 23 27 31 33 35 38 40 42 45 47 48 49 50 50 52 51 57 64 59 55 46
10 4 9 11 9 10 21 16 5 7 6 3 6 7 17 16 23 18 13 10 11 16 21 26 30 33 35 38 40 42 43 46 48 50 52 51 51 55 65 62 51 45 38 33
8 4 4 11 9 14 11 15 8 3 2 6 9 6 12 20 23 19 15 13 15 20 26 29 33 35 36 38 41 44 47 50 53 55 55 55 55 59 63 46 43 39 36 32
5 6 9 15 12 8 9 21 15 3 3 6 9 14 28 22 20 20 17 17 21 25 29 32 35 36 37 40 43 48 51 54 57 57 57 57 59 69 47 42 39 37 36 35
6 7 8 10 11 13 14 17 17 17 8 11 13 23 22 20 20 18 16 20 25 31 32 34 35 37 39 42 47 51 54 57 58 59 58 57 60 50 42 40 38 36 35 32
8 6 3 6 13 32 23 31 31 27 24 19 16 21 24 18 17 17 20 25 30 32 32 34 34 37 41 45 50 54 56 60 60 58 55 61 56 43 41 39 39 37 35 32
7 3 3 7 5 9 12 15 23 24 26 17 18 12 19 17 19 22 26 28 29 29 31 32 35 38 41 46 51 55 58 60 59 58 61 59 46 43 41 40 39 39 39 40
7 6 4 2 5 4 9 14 8 23 24 22 16 20 20 20 18 19 26 26 27 28 29 31 34 38 41 46 54 54 58 61 58 58 62 56 46 44 42 41 43 42 43 44
16 4 6 4 5 10 6 12 10 10 18 28 24 28 28 25 7 26 28 23 23 24 25 28 32 36 40 47 57 56 61 61 59 64 62 51 46 44 40 41 42 42 50 46
8 7 2 2 4 6 7 18 21 13 6 36 33 30 32 34 8 20 27 21 23 23 25 28 34 35 42 48 56 57 62 62 63 64 58 46 44 40 39 40 42 45 50 48
10 8 12 9 8 8 18 32 20 6 10 36 31 27 26 20 19 22 16 17 20 22 24 29 32 37 43 49 53 57 61 63 56 66 52 44 42 41 41 40 41 44 53 47
13 9 8 6 4 9 31 11 5 7 24 27 28 25 24 20 14 12 14 18 21 22 25 30 33 37 42 50 56 58 65 61 55 63 51 46 46 44 42 42 41 48 56 49
7 9 7 9 7 16 27 17 11 12 23 26 29 25 20 17 13 11 14 18 21 23 25 27 31 34 42 50 56 63 69 66 58 59 58 45 49 49 46 47 48 52 58 52
7 15 5 6 9 24 12 8 6 24 24 28 25 23 16 14 11 10 14 16 19 22 24 27 30 34 41 48 55 63 68 70 61 58 65 50 48 56 53 54 53 57 61 57
9 17 11 4 5 16 5 7 23 28 29 26 23 18 14 9 7 7 11 14 17 20 22 25 29 32 38 43 53 61 66 71 72 60 60 59 48 53 56 60 60 57 57 61
13 5 4 4 16 18 26 22 32 37 31 26 23 17 10 4 3 5 9 12 14 19 23 23 27 33 39 44 50 57 63 68 73 72 56 62 50 52 53 56 54 53 51 54
Wind_Direction_850mb
64 93 43 14 7 13 340 307 312 354 39 326 73 63 41 28 25 23 25 75 133 154 161 166 165 164 163 210 253 231 226 233 243 253 264 277 284 286 287 287 283 279 279 273
140 67 18 4 358 306 306 297 332 283 29 293 170 67 63 42 39 33 32 60 95 131 153 158 159 153 90 263 243 234 232 244 255 264 274 281 287 289 285 284 285 282 275 269
63 24 349 298 6 330 310 322 332 311 323 96 225 152 41 64 47 47 46 54 73 113 131 145 150 152 248 262 245 238 244 251 267 282 289 294 293 292 292 289 287 284 278 274
63 21 12 352 9 344 296 354 315 294 279 257 348 99 63 42 50 45 44 47 58 76 92 105 118 201 268 281 255 235 255 275 290 296 295 291 290 291 290 289 287 281 276 274
72 18 14 9 355 331 326 319 298 287 250 209 55 259 67 48 36 35 39 42 47 60 82 93 86 73 50 32 324 295 297 297 295 295 297 296 294 292 292 289 286 283 280 277
60 69 34 351 322 310 318 301 280 228 206 208 28 320 60 26 13 21 37 43 53 69 80 78 75 63 37 0 337 320 311 306 305 303 301 299 297 297 294 292 289 287 283 277
130 51 44 8 351 199 346 326 253 220 190 155 34 58 54 32 23 21 28 53 71 78 76 71 53 26 1 345 334 325 318 314 312 309 306 304 299 297 296 295 293 291 287 280
4 188 12 3 19 325 351 341 1 265 303 74 118 94 62 41 40 42 59 75 79 74 64 45 18 356 345 338 328 326 323 318 316 314 310 308 304 302 299 296 291 288 285 280
357 88 11 26 352 4 348 27 313 277 293 244 103 73 283 345 70 61 71 79 70 55 30 6 353 344 338 332 331 327 322 321 320 316 314 314 312 308 305 301 297 294 289 285
29 337 19 7 321 36 26 358 310 353 5 97 81 69 51 16 62 78 86 76 54 23 359 348 344 339 338 333 330 327 325 322 321 321 320 319 317 314 310 307 302 296 289 278
354 317 35 217 25 7 14 23 357 97 338 323 74 82 341 354 56 74 79 56 23 356 348 345 342 341 339 335 334 331 329 329 327 326 324 321 320 321 319 311 305 300 303 301
24 5 58 50 63 8 50 15 31 313 64 2 309 68 355 26 60 65 67 41 1 348 347 345 344 343 341 340 338 337 334 333 331 329 328 327 326 325 324 323 332 331 324 321
6 60 198 162 170 56 27 338 295 161 264 15 324 55 353 66 67 58 49 23 3 356 353 350 349 348 347 344 342 341 339 336 335 334 332 330 330 331 328 329 329 331 330 326
275 56 29 70 67 334 336 352 3 226 353 64 41 53 46 49 57 50 35 19 11 0 356 353 352 351 350 349 345 342 341 340 338 339 336 336 336 328 336 337 341 341 339 335
6 88 90 75 91 73 30 35 30 61 60 51 79 60 33 34 36 33 20 14 6 4 360 358 356 354 352 350 346 345 343 343 343 342 344 341 332 343 351 357 355 353 352 345
15 111 148 109 120 84 57 46 52 54 46 72 75 63 5 33 37 23 18 6 2 4 0 1 358 357 355 352 347 346 346 349 347 347 349 343 351 2 7 8 2 6 9 11
36 34 214 145 204 233 52 0 47 64 46 37 45 345 356 21 12 7 6 5 6 5 3 1 2 358 356 354 348 349 349 349 355 354 354 355 8 13 16 15 21 30 33 25
1 134 135 44 253 138 113 19 336 71 57 31 20 10 357 346 347 22 13 11 12 8 6 6 1 358 358 355 354 353 353 356 359 359 359 7 18 19 26 33 37 41 39 34
14 300 131 188 54 113 70 19 341 348 46 31 8 358 348 337 274 54 28 19 15 13 9 5 0 359 358 360 360 356 359 1 3 4 5 17 25 27 37 43 45 45 42 46
16 8 328 202 131 87 20 322 309 272 95 17 3 355 350 339 67 49 358 4 11 10 10 4 5 2 4 3 4 0 3 3 8 4 19 29 35 40 46 49 53 52 58 56
20 20 35 26 89 100 347 333 307 250 5 341 351 350 348 1 353 332 14 8 10 9 8 10 8 7 7 7 7 5 7 9 8 6 28 42 47 52 53 55 61 61 67 66
17 344 35 352 80 89 1 347 49 336 315 331 343 344 340 344 357 6 9 9 12 8 10 12 11 9 11 11 12 10 14 11 12 8 36 53 58 63 62 59 62 67 69 67
45 13 351 7 46 346 325 279 284 312 319 331 331 335 334 341 355 2 2 6 11 8 11 13 12 11 13 16 18 17 18 19 15 17 39 56 65 63 63 65 60 70 66 70
63 14 353 308 8 331 305 290 240 336 326 325 325 324 329 335 346 3 4 6 9 9 13 15 16 16 16 19 21 23 24 26 22 25 34 51 66 67 63 65 66 62 72 76
345 328 331 280 346 334 264 271 315 324 325 323 321 318 318 333 359 6 14 9 9 10 13 19 18 19 19 21 25 26 27 30 30 28 29 48 60 65 67 60 58 63 64 72
344 327 336 295 323 302 280 307 318 317 321 319 314 316 310 317 15 24 19 19 16 12 18 22 20 25 26 27 28 30 29 32 34 33 32 41 57 63 67 72 71 67 73 78